星链-1680 (STARLINK-1680 )

导读

STARLINK-1680是美国太空探索技术公司(SpaceX)星链互联网卫星星座的卫星之一,于2020年10月6日发射入轨。该卫星属于星链低轨星座的组网组成部分,依托星链部署规划,承担为全球提供低延迟、高速卫星互联网接入服务的任务,是SpaceX批量部署星链进程中的一颗典型组网卫星。

基本信息
目录编号:
46558
目录名称:
STARLINK-1680
国际标识:
2020-070AC
轨道中心:
EARTH
卫星名称:
星链-1680
卫星全名:
星链-1680 (STARLINK-1680 )
卫星状态:
已陨落 最后检测时间 2026-05-07
发射日期:
2020-10-06 UTC
国别 :
美国 (US)
星等 :
--
轨道信息
数据来源 国际轨道数据
星历时间: 2026-05-07T08:49:24+0800
轨道信息已过期42天
半长轴: 6529.281km
偏心率: 0.0004238
轨道倾角: 53.016°
近地点辐角 291.918°
升交点赤经 171.518°
平近点角 68.142°
近地点: 148.376km
远地点: 153.912km
周期: 87.510分钟
每日圈数: 16.455261
详细信息
固有亮度:
5
最大亮度:
2.5
卫星平台:
Starlink V1.0
覆盖范围:
全球
运营商:
太空探索技术公司
运营商所在国:
美国
制造商(研发单位):
太空探索技术公司
制造商所在国:
美国
使用方式:
暂无
卫星简介
星链(Starlink)计划是由太空探索技术公司(SpaceX)提出的一个巨型低轨卫星互联网星座项目,计划在2019年至2024年间在太空搭建由约1.2万颗卫星组成的“星链”网络,其中1584颗将部署在地球上空550千米处的近地轨道,并从2020年开始工作。该卫星仍在工作。